[[{"header":{"parameterUnit":"m.s-1","parameterCategory":1,"la1":30.2991,"la2":30.254,"lo1":-89.0895,"lo2":-89.0444,"dy":0.0017,"dx":0.0017,"nx":28,"ny":28,"refTime":"2025-02-25T03:00:00:Z","depth":0,"parameterNumber":2,"parameterNumberName":"U-component_of_WINDS"},"data":[0,0,0,0,0,0,0,0,0,0,0,0,0,0,0,0,0,0,0,0,0,0,0,0,0,0,0,0,0,0,0,0,0,0,0,0,0,0,0,0,0,0,0,0,0,0,0,0,0,0,0,0,0,0,0,0,0,0,-1.0465,-1.0464,0,-1.0373,-1.0372,-1.0371,-1.0314,-1.0313,-1.0313,-1.0313,-1.0218,-1.0216,-1.0213,0,0,0,0,0,0,0,0,0,0,0,0,0,-1.059,-1.0588,-1.0465,-1.0463,-1.0462,-1.0373,-1.0372,-1.0371,-1.0314,-1.0313,-1.0313,-1.0313,-1.0218,-1.0216,-1.0213,0,0,0,0,0,0,0,0,0,0,0,0,0,-1.052,-1.0587,-1.0465,-1.0423,-1.0419,-1.0373,-1.0372,-1.037,-1.0314,-1.0313,-1.0313,-1.0312,-1.0219,-1.0216,-1.0213,-1.0201,0,0,-1.0202,-1.0201,0,0,0,0,0,0,0,0,-1.0524,-1.0516,-1.043,-1.0426,-1.0421,-1.0354,-1.0381,-1.0314,-1.0314,-1.0354,-1.0313,-1.0312,-1.0263,-1.0256,-1.024,-1.0197,-1.0193,-1.0202,-1.02,-1.0199,-1.0198,0,0,0,0,0,0,0,-1.0529,-1.052,-1.0428,-1.0429,-1.0423,-1.0409,-1.0399,-1.0368,-1.0312,-1.035,-1.0346,-1.0336,-1.0261,-1.0244,-1.0238,-1.0191,-1.0202,-1.0199,-1.0197,-1.0196,-1.0135,-1.0135,0,0,0,0,0,0,-1.0541,-1.0524,-1.0431,-1.0426,-1.0473,-1.0407,-1.0396,-1.0376,-1.0312,-1.0302,-1.0336,-1.0333,-1.025,-1.0242,-1.0234,-1.0217,-1.0199,-1.0196,-1.0194,-1.0134,-1.0135,-1.0135,0,0,0,0,0,0,-1.0544,-1.0533,-1.0435,-1.0474,-1.046,-1.0405,-1.0384,-1.0375,-1.0357,-1.0302,-1.0292,-1.0329,-1.0249,-1.0239,-1.021,-1.0212,-1.0194,-1.0191,-1.0134,-1.0134,-1.0135,-1.0182,0,0,0,0,0,0,-1.0548,-1.0535,-1.053,-1.0474,-1.0458,-1.0413,-1.0384,-1.0373,-1.0352,-1.0347,-1.0292,-1.0283,-1.0248,-1.0215,-1.0207,-1.0208,-1.0188,-1.0133,-1.0134,-1.0135,-1.018,-1.0184,-1.0187,0,0,0,0,0,-1.0552,-1.0546,-1.053,-1.0519,-1.0451,-1.0413,-1.0404,-1.0364,-1.0352,-1.0347,-1.0312,-1.0285,-1.0214,-1.0213,-1.0203,-1.0203,-1.0133,-1.0134,-1.0135,-1.0178,-1.0183,-1.0187,0,0,0,0,0,0,-1.0603,-1.0538,-1.0519,-1.0495,-1.046,-1.0404,-1.0395,-1.0371,-1.0338,-1.0335,-1.0286,-1.0275,-1.0251,-1.0224,-1.0224,-1.0188,-1.017,-1.0169,-1.0207,-1.0211,-1.0215,-1.0222,-1.0186,0,0,0,0,0,-1.0611,-1.0586,-1.0531,-1.0515,-1.0498,-1.045,-1.0432,-1.0405,-1.0366,-1.0351,-1.0313,-1.0277,-1.0247,-1.0227,-1.0196,-1.0176,-1.0163,-1.0171,-1.0175,-1.0178,-1.0178,-1.0165,-1.0168,-1.0138,-1.0138,-1.0138,0,0,-1.0628,-1.059,-1.0577,-1.0524,-1.0494,-1.0469,-1.0438,-1.0413,-1.0394,-1.0347,-1.0318,-1.0289,-1.0245,-1.0221,-1.0208,-1.0198,-1.0183,-1.0179,-1.0182,-1.018,-1.0166,-1.0169,-1.0172,-1.0139,-1.0139,-1.0138,0,0,-1.0646,-1.0615,-1.0598,-1.0569,-1.0524,-1.0492,-1.0488,-1.0435,-1.0415,-1.0385,-1.035,-1.0326,-1.0275,-1.0245,-1.0223,-1.0232,-1.0206,-1.0223,-1.0243,-1.0231,-1.0234,-1.0235,-1.0238,-1.024,-1.0223,-1.0223,-1.0223,0,-1.0673,-1.0634,-1.0592,-1.0569,-1.0547,-1.0505,-1.0488,-1.0461,-1.0408,-1.0394,-1.0383,-1.0318,-1.0286,-1.0254,-1.0256,-1.024,-1.0234,-1.0229,-1.0237,-1.0238,-1.0239,-1.0241,-1.0243,-1.0225,-1.0225,-1.0225,-1.0225,0,-1.0669,-1.0643,-1.0635,-1.0585,-1.0562,-1.0542,-1.0498,-1.0479,-1.0454,-1.0424,-1.0394,-1.0354,-1.0314,-1.0305,-1.0279,-1.027,-1.0264,-1.0246,-1.0227,-1.0245,-1.0246,-1.0247,-1.0229,-1.0228,-1.0227,-1.0227,0,0,-1.0715,-1.0644,-1.0642,-1.0619,-1.0567,-1.0545,-1.0524,-1.0486,-1.0471,-1.0436,-1.0417,-1.0375,-1.0357,-1.0333,-1.0304,-1.0294,-1.0304,-1.0277,-1.0275,-1.0283,-1.029,-1.0304,-1.0306,-1.0287,-1.0286,-1.0286,-1.0294,0,-1.0725,-1.0684,-1.0647,-1.0619,-1.0595,-1.0555,-1.0536,-1.0502,-1.0473,-1.0448,-1.0416,-1.0387,-1.0366,-1.0351,-1.034,-1.0305,-1.0304,-1.0304,-1.0267,-1.0267,-1.0279,-1.0306,-1.0321,-1.033,-1.0294,-1.0294,-1.0294,0,-1.0731,-1.0699,-1.0669,-1.062,-1.0608,-1.0592,-1.0554,-1.0531,-1.0491,-1.0471,-1.0445,-1.0415,-1.039,-1.0374,-1.0339,-1.034,-1.0323,-1.0304,-1.0303,-1.0298,-1.0281,-1.0301,-1.0331,-1.0333,-1.0294,-1.0294,-1.0294,0,-1.0768,-1.0717,-1.0693,-1.0674,-1.0616,-1.0606,-1.0581,-1.0542,-1.0521,-1.0488,-1.0475,-1.0439,-1.042,-1.0393,-1.0355,-1.0347,-1.0324,-1.0305,-1.0306,-1.0307,-1.0302,-1.0303,-1.033,-1.0293,-1.0293,-1.0293,-1.0293,0,-1.0783,-1.0766,-1.0708,-1.0693,-1.0674,-1.0631,-1.0613,-1.0585,-1.055,-1.0529,-1.0492,-1.0473,-1.0423,-1.0398,-1.0368,-1.0344,-1.0336,-1.0318,-1.031,-1.0321,-1.0323,-1.0309,-1.0307,-1.0293,-1.0293,-1.0293,-1.0293,0,-1.082,-1.0781,-1.0752,-1.0699,-1.0686,-1.0674,-1.0629,-1.0613,-1.0583,-1.0557,-1.0548,-1.05,-1.0469,-1.0428,-1.0384,-1.0363,-1.0343,-1.0331,-1.0356,-1.0351,-1.0355,-1.0355,-1.0373,-1.0373,-1.0337,-1.0337,-1.0337,0,-1.0832,-1.0818,-1.0765,-1.0748,-1.0725,-1.0699,-1.0678,-1.0636,-1.0616,-1.0571,-1.056,-1.0526,-1.0497,-1.0449,-1.041,-1.0376,-1.0363,-1.0371,-1.0357,-1.0369,-1.0362,-1.0364,-1.0362,-1.0375,-1.0375,-1.0376,-1.0376,0,-1.0857,-1.0838,-1.081,-1.0775,-1.0752,-1.0722,-1.0691,-1.0679,-1.0631,-1.061,-1.0578,-1.0555,-1.0511,-1.0477,-1.0439,-1.0413,-1.0386,-1.0381,-1.0379,-1.039,-1.0405,-1.0397,-1.0365,-1.0381,-1.038,-1.038,-1.038,-1.0379,-1.0881,-1.0868,-1.0828,-1.0798,-1.077,-1.0742,-1.0725,-1.0693,-1.0665,-1.0626,-1.0603,-1.0572,-1.0533,-1.0479,-1.0454,-1.0429,-1.0419,-1.0417,-1.0416,-1.0416,-1.042,-1.041,-1.0422,-1.0422,-1.0422,-1.0422,-1.0421,0,-1.0905,-1.0878,-1.085,-1.0808,-1.0785,-1.0762,-1.0727,-1.0709,-1.0682,-1.0648,-1.0621,-1.0584,-1.0552,-1.0511,-1.0476,-1.0464,-1.0451,-1.0456,-1.0456,-1.0451,-1.0431,-1.0436,-1.0467,-1.0467,-1.0467,-1.0467,-1.0467,-1.0467,-1.0914,-1.089,-1.0867,-1.0828,-1.0801,-1.077,-1.0752,-1.0726,-1.0699,-1.066,-1.0634,-1.0607,-1.0571,-1.0533,-1.0503,-1.0492,-1.0481,-1.049,-1.0475,-1.0457,-1.0452,-1.0448,-1.0453,-1.0488,-1.0488,-1.0497,-1.0497,-1.0497]},{"header":{"parameterUnit":"m.s-1","parameterCategory":1,"la1":30.2991,"la2":30.254,"lo1":-89.0895,"lo2":-89.0444,"dy":0.0017,"dx":0.0017,"nx":28,"ny":28,"refTime":"2025-02-25T03:00:00:Z","depth":0,"parameterNumber":3,"parameterNumberName":"V-component_of_WINDS"},"data":[0,0,0,0,0,0,0,0,0,0,0,0,0,0,0,0,0,0,0,0,0,0,0,0,0,0,0,0,0,0,0,0,0,0,0,0,0,0,0,0,0,0,0,0,0,0,0,0,0,0,0,0,0,0,0,0,0,0,2.0594,2.0594,0,2.0593,2.0593,2.0593,2.0593,2.0593,2.0593,2.0593,2.0591,2.0591,2.0591,0,0,0,0,0,0,0,0,0,0,0,0,0,2.0597,2.0597,2.0594,2.0594,2.0594,2.0593,2.0593,2.0593,2.0593,2.0593,2.0593,2.0593,2.0591,2.0591,2.0591,0,0,0,0,0,0,0,0,0,0,0,0,0,2.0596,2.0597,2.0594,2.0594,2.0594,2.0593,2.0593,2.0593,2.0593,2.0593,2.0593,2.0593,2.0591,2.0591,2.0591,2.0588,0,0,2.059,2.059,0,0,0,0,0,0,0,0,2.0596,2.0596,2.0594,2.0594,2.0594,2.0593,2.0593,2.0591,2.0593,2.0594,2.0593,2.0593,2.0591,2.0591,2.0591,2.0588,2.0588,2.059,2.059,2.059,2.059,0,0,0,0,0,0,0,2.0596,2.0596,2.0594,2.0594,2.0594,2.0594,2.0594,2.0592,2.0592,2.0594,2.0594,2.0594,2.0591,2.0591,2.0591,2.0588,2.059,2.059,2.059,2.059,2.0584,2.0583,0,0,0,0,0,0,2.0596,2.0596,2.0594,2.0594,2.0595,2.0594,2.0594,2.0594,2.0592,2.0592,2.0593,2.0594,2.0591,2.0591,2.0591,2.0588,2.059,2.059,2.059,2.0584,2.0584,2.0583,0,0,0,0,0,0,2.0596,2.0596,2.0594,2.0595,2.0594,2.0594,2.0593,2.0593,2.0593,2.0592,2.0592,2.0593,2.0591,2.0591,2.0589,2.0588,2.059,2.0589,2.0584,2.0584,2.0583,2.0583,0,0,0,0,0,0,2.0596,2.0596,2.0595,2.0595,2.0594,2.0592,2.0593,2.0593,2.0593,2.0593,2.0592,2.0591,2.0591,2.0589,2.0589,2.0588,2.0589,2.0584,2.0584,2.0584,2.0583,2.0583,2.0582,0,0,0,0,0,2.0597,2.0595,2.0595,2.0595,2.0594,2.0592,2.0592,2.0592,2.0593,2.0592,2.0591,2.0592,2.0588,2.0589,2.0589,2.0587,2.0584,2.0584,2.0584,2.0583,2.0583,2.0582,0,0,0,0,0,0,2.0595,2.0595,2.0595,2.0593,2.0593,2.0592,2.0591,2.0592,2.0591,2.0591,2.059,2.059,2.0588,2.0588,2.0589,2.0585,2.0586,2.0586,2.0586,2.0586,2.0585,2.0585,2.0589,0,0,0,0,0,2.0595,2.0594,2.0594,2.0592,2.0592,2.0592,2.0591,2.0591,2.059,2.059,2.0589,2.0588,2.0587,2.0586,2.0585,2.0583,2.0583,2.0582,2.0582,2.0581,2.0581,2.058,2.058,2.0583,2.0583,2.0583,0,0,2.0593,2.0593,2.0593,2.0592,2.0591,2.059,2.0591,2.059,2.0589,2.059,2.0588,2.0587,2.0586,2.0584,2.0583,2.0584,2.058,2.0581,2.0581,2.0581,2.058,2.058,2.058,2.0583,2.0583,2.0583,0,0,2.0591,2.0591,2.059,2.0589,2.0589,2.0589,2.0588,2.0588,2.0588,2.0586,2.0586,2.0585,2.0583,2.0582,2.0582,2.0579,2.058,2.0579,2.0578,2.0577,2.0577,2.0576,2.0576,2.0575,2.0579,2.0579,2.0579,0,2.059,2.0588,2.0589,2.0588,2.0587,2.0588,2.0587,2.0586,2.0585,2.0585,2.0585,2.0583,2.0582,2.058,2.058,2.0579,2.0579,2.0579,2.0577,2.0576,2.0576,2.0576,2.0575,2.0579,2.0579,2.0579,2.0579,0,2.0587,2.0586,2.0585,2.0584,2.0584,2.0583,2.0583,2.0582,2.0582,2.0582,2.0581,2.058,2.0579,2.0578,2.0578,2.0576,2.0576,2.0577,2.0578,2.0576,2.0575,2.0575,2.0579,2.0579,2.0579,2.0579,0,0,2.0583,2.0583,2.0583,2.0583,2.0582,2.0581,2.058,2.0579,2.0579,2.0578,2.0577,2.0576,2.0576,2.0575,2.0575,2.0574,2.0573,2.0575,2.0575,2.0575,2.0571,2.0571,2.057,2.0573,2.0573,2.0573,2.0571,0,2.0581,2.0579,2.058,2.0578,2.0577,2.0578,2.0577,2.0576,2.0576,2.0575,2.0575,2.0574,2.0575,2.0574,2.0574,2.0573,2.0572,2.0573,2.0572,2.0572,2.0572,2.057,2.057,2.0568,2.0571,2.0571,2.0571,0,2.0578,2.0577,2.0576,2.0576,2.0575,2.0574,2.0574,2.0573,2.0573,2.0573,2.0572,2.0572,2.0571,2.0572,2.057,2.0571,2.0571,2.057,2.057,2.057,2.0571,2.057,2.0567,2.0567,2.057,2.057,2.057,0,2.0575,2.0574,2.0573,2.0573,2.0573,2.0573,2.0572,2.0572,2.0572,2.0571,2.0571,2.057,2.0569,2.0569,2.0569,2.0569,2.0567,2.0568,2.0567,2.0567,2.0566,2.0566,2.0564,2.0566,2.0566,2.0566,2.0566,0,2.0573,2.0572,2.0572,2.0572,2.0571,2.0571,2.057,2.057,2.057,2.0569,2.0569,2.0569,2.0568,2.0568,2.0568,2.0566,2.0566,2.0566,2.0566,2.0566,2.0566,2.0566,2.0566,2.0566,2.0566,2.0566,2.0566,0,2.057,2.057,2.0569,2.057,2.057,2.0569,2.0569,2.0568,2.0568,2.0567,2.0567,2.0567,2.0566,2.0566,2.0565,2.0565,2.0563,2.0563,2.0564,2.0564,2.0563,2.0563,2.056,2.0559,2.0562,2.0562,2.0562,0,2.0568,2.0568,2.0568,2.0568,2.0567,2.0567,2.0567,2.0567,2.0567,2.0566,2.0566,2.0565,2.0564,2.0563,2.0563,2.0562,2.0562,2.0561,2.0562,2.0562,2.0562,2.0562,2.0562,2.0561,2.0561,2.056,2.056,0,2.0565,2.0566,2.0565,2.0565,2.0565,2.0565,2.0564,2.0564,2.0564,2.0564,2.0563,2.0563,2.0562,2.0561,2.056,2.056,2.056,2.056,2.056,2.056,2.056,2.056,2.0563,2.056,2.056,2.056,2.056,2.056,2.0563,2.0563,2.0563,2.0562,2.0562,2.0562,2.0562,2.0562,2.0561,2.0561,2.0561,2.056,2.056,2.0559,2.0559,2.0558,2.0558,2.0558,2.0558,2.0558,2.0558,2.056,2.0558,2.0558,2.0558,2.0558,2.0558,0,2.056,2.056,2.056,2.056,2.056,2.056,2.056,2.056,2.0559,2.0559,2.0559,2.0558,2.0557,2.0557,2.0556,2.0556,2.0556,2.0556,2.0556,2.0556,2.0557,2.0558,2.0556,2.0556,2.0556,2.0556,2.0556,2.0556,2.0559,2.0558,2.0558,2.0558,2.0558,2.0557,2.0557,2.0557,2.0557,2.0556,2.0556,2.0556,2.0556,2.0555,2.0554,2.0554,2.0554,2.0554,2.0554,2.0555,2.0556,2.0556,2.0556,2.0554,2.0554,2.0552,2.0552,2.0552]}]]